Starlink 4415

operational
NORAD ID: 53465 Int'l Des: 2022-099 Owner: SPXS Country: US Constellation: starlink
LEOCIRCULARRETROGRADESSO

Über Starlink 4415

Beschreibung wird geladen...

Live-Position

3D-Globus wird geladen...

Nächste Überflüge

Höhenverlauf

Altitude vs Time

uPlot chart will show altitude changes over time

Zweizeiliger Elementsatz

1 53465U 22099A 25308.28193103 .00000936 00000-0 69046-4 0 9997
2 53465 97.6037 67.6016 0001484 95.6070 264.5326 15.05646460177164
Epoch: 4. Nov. 2025 • Age: 7 hours

Aktueller Status

Höhe 559.8 km
Geschwindigkeit 7.59 km/s
Subsatellitenpunkt 64.96°N, 15.57°E
Startdatum 12. Aug. 2022
Alter 3.2 years
Typ internet

Technische Details

Klassifizierung Payload
Masse 300.00 kg
Trockenmasse 275.00 kg
Gesamtmasse 300.00 kg
Länge 0.20 m
Durchmesser 2.80 m
Spannweite 9.00 m
Form Box + pan
Hersteller SPXS
Bus-Typ Starlink
Phasenstatus In Orbit
Besitzer/Staat SPXS/US

Große Konstellationen

Loading constellations...